TimeEST,TemperatureF,Dew PointF,Humidity,Sea Level PressureIn,VisibilityMPH,Wind Direction,Wind SpeedMPH,Gust SpeedMPH,PrecipitationIn,Events,Conditions,WindDirDegrees,DateUTC
12:53 AM,55.9,34.0,44,30.07,10.0,SSW,12.7,19.6,N/A,,Clear,210,2011-11-26 05:53:00
1:53 AM,55.9,36.0,47,30.06,10.0,SSW,17.3,24.2,N/A,,Clear,210,2011-11-26 06:53:00
2:53 AM,55.0,37.9,53,30.07,10.0,SSW,11.5,21.9,N/A,,Clear,210,2011-11-26 07:53:00
3:53 AM,57.0,41.0,55,30.06,10.0,SSW,13.8,20.7,N/A,,Mostly Cloudy,210,2011-11-26 08:53:00
4:53 AM,57.9,44.1,60,30.06,10.0,SW,11.5,24.2,N/A,,Overcast,220,2011-11-26 09:53:00
5:53 AM,57.0,44.1,62,30.05,10.0,SW,11.5,21.9,N/A,,Overcast,220,2011-11-26 10:53:00
6:53 AM,57.0,44.1,62,30.05,10.0,SSW,12.7,-,N/A,,Overcast,200,2011-11-26 11:53:00
7:53 AM,57.0,45.0,64,30.05,10.0,SSW,10.4,19.6,N/A,,Clear,200,2011-11-26 12:53:00
9:53 AM,60.1,46.0,60,30.04,10.0,South,18.4,26.5,N/A,,Mostly Cloudy,190,2011-11-26 14:53:00
10:53 AM,63.0,46.9,56,30.02,10.0,South,20.7,28.8,N/A,,Mostly Cloudy,190,2011-11-26 15:53:00
11:53 AM,63.0,46.9,56,30.01,10.0,South,17.3,26.5,N/A,,Mostly Cloudy,190,2011-11-26 16:53:00
12:53 PM,63.0,48.0,58,29.98,10.0,South,16.1,27.6,N/A,,Overcast,190,2011-11-26 17:53:00
1:53 PM,63.0,48.0,58,29.96,10.0,South,15.0,25.3,N/A,,Overcast,190,2011-11-26 18:53:00
2:53 PM,64.0,48.9,58,29.93,10.0,South,9.2,-,N/A,,Overcast,180,2011-11-26 19:53:00
3:53 PM,64.9,48.9,56,29.91,10.0,South,10.4,-,N/A,,Overcast,170,2011-11-26 20:53:00
4:53 PM,63.0,48.9,60,29.92,10.0,SW,3.5,-,0.00,Rain,Light Rain,220,2011-11-26 21:53:00
5:53 PM,62.1,48.9,62,29.89,10.0,SSE,6.9,-,0.00,,Overcast,150,2011-11-26 22:53:00
6:53 PM,62.1,48.0,60,29.86,10.0,SSE,10.4,-,N/A,,Mostly Cloudy,150,2011-11-26 23:53:00
8:53 PM,63.0,48.0,58,29.85,10.0,SSE,10.4,-,N/A,,Overcast,160,2011-11-27 01:53:00
9:53 PM,64.0,48.0,56,29.83,10.0,South,13.8,23.0,N/A,,Overcast,180,2011-11-27 02:53:00
11:53 PM,62.1,51.1,67,29.84,10.0,SW,15.0,23.0,N/A,,Overcast,220,2011-11-27 04:53:00